Flag for Poland Weather past 2 weeks in Poznan, Poland

Now
55 °F

Fog.


Feels Like: 55 °F
Forecast: 59 / 70 °F
Wind: 2 mph from East

Location: Poznan Airport

Current Time: Sep 20, 2014 at 3:54:14 AM

Latest Report: Sep 20, 2014 at 3:00 AM


Visibility: 0 mi

Pressure: 29.95 "Hg

Humidity: 94%

Dew point: 54 °F

Location of PoznanLocation

Historic Weather in Poznan — Graph

°F

Poznan temperature yesterday

Maximum temperature yesterday: 64 °F (at 4:00 PM)
Minimum temperature yesterday: 55 °F (at 11:30 PM)
Average temperature yesterday: 60 °F

Past Weeks' High & Low Weather Summary

 TemperatureHumidityPressure
High81 °F (Sep 14, 2:30 PM)100% (Sep 7, 4:30 AM)30.18 "Hg (Sep 7, 4:30 AM)
Low50 °F (Sep 6, 5:00 AM)21% (Sep 15, 4:30 PM)29.92 "Hg (Sep 6, 4:00 PM)
Average64 °F74%30.04 "Hg
* Reported Sep 5 2:00 AM — Sep 20 2:00 AM, Poznan, Weather by CustomWeather, © 2014

Note: Actual official high and low records may vary slightly from our data, if they occured in-between our weather recording intervals... More about our weather records

Advertising

Poznan weather history for previous 24 hours

 ConditionsComfort  
Time TempWeatherWind HumidityBarometerVisibility
2:00 AM
Sep 20
55 °FFog.3 mph94%29.95 "Hg1 mi
1:30 AM55 °FFog.3 mph94%29.95 "Hg1 mi
1:00 AM55 °FFog.3 mph94%29.95 "Hg1 mi
12:30 AM57 °FCool.2 mph94%29.95 "Hg2 mi
12:00 AM55 °FFog.5 mph100%29.95 "Hg2 mi
11:30 PM
Sep 19
55 °FFog.2 mph94%29.95 "Hg1 mi
10:30 PM57 °FClear.5 mph94%29.95 "Hg10 mi
10:00 PM59 °FClear.5 mph94%29.98 "Hg10 mi
9:30 PM59 °FClear.5 mph94%29.98 "Hg4 mi
9:00 PM61 °FClear.5 mph94%29.98 "Hg4 mi
8:30 PM61 °FClear.5 mph94%29.98 "Hg4 mi
8:00 PM61 °FClear.3 mph94%29.98 "Hg4 mi
7:30 PM61 °FClear.5 mph94%29.98 "Hg4 mi
7:00 PM63 °FPassing clouds.3 mph94%29.98 "Hg4 mi
6:30 PM63 °FLight rain. Passing clouds.5 mph94%29.98 "Hg4 mi
6:00 PM63 °FLight rain. Scattered clouds.3 mph94%29.98 "Hg4 mi
5:30 PM63 °FLight rain. Scattered clouds.1 mph94%29.98 "Hg4 mi
5:00 PM63 °FLight rain. Clear.2 mph94%29.98 "Hg4 mi
4:30 PM64 °FLight rain. Scattered clouds.1 mph94%29.98 "Hg4 mi
4:00 PM64 °FLight rain. Scattered clouds.2 mph94%30.01 "Hg4 mi
3:30 PM63 °FLight rain. Passing clouds.2 mph94%29.98 "Hg4 mi
3:00 PM63 °FLight rain. Passing clouds.2 mph94%30.01 "Hg4 mi
2:30 PM63 °FLight rain. Passing clouds.2 mph94%30.01 "Hg5 mi
2:00 PM63 °FLight rain. Passing clouds.1 mph88%30.01 "HgN/A
1:30 PM63 °FSprinkles. Passing clouds.1 mph94%30.01 "HgN/A
1:00 PM63 °FSprinkles. Passing clouds.7 mph88%29.98 "HgN/A
12:30 PM61 °FSprinkles. Passing clouds.3 mph94%30.01 "HgN/A
12:00 PM61 °FSprinkles. Scattered clouds.2 mph88%30.01 "HgN/A
11:30 AM61 °FSprinkles. Scattered clouds.3 mph83%30.01 "Hg4 mi
11:00 AM61 °FSunny.1 mph77%30.01 "Hg10 mi
10:30 AM59 °FSprinkles. Passing clouds.7 mph82%30.01 "HgN/A
10:00 AM59 °FSprinkles. Passing clouds.3 mph82%30.01 "HgN/A
9:30 AM59 °FSunny.5 mph77%30.01 "Hg10 mi
9:00 AM59 °FSunny.7 mph77%30.01 "Hg10 mi
8:30 AM59 °FSunny.8 mph77%30.01 "Hg10 mi
8:00 AM57 °FSunny.6 mph82%30.01 "Hg10 mi
7:30 AM57 °FClear.5 mph82%30.01 "Hg10 mi
7:00 AM57 °FClear.7 mph82%30.01 "Hg10 mi
6:30 AM57 °FClear.7 mph82%30.01 "Hg10 mi
6:00 AM57 °FClear.8 mph82%30.01 "Hg10 mi
5:30 AM57 °FClear.8 mph82%30.01 "Hg10 mi
5:00 AM57 °FClear.7 mph82%30.01 "Hg10 mi
4:30 AM57 °FClear.7 mph82%30.01 "Hg10 mi
4:00 AM57 °FClear.8 mph82%30.01 "Hg10 mi
3:30 AM57 °FClear.8 mph82%30.01 "Hg10 mi
3:00 AM59 °FClear.8 mph77%30.01 "Hg10 mi
Weather by CustomWeather, © 2014

See weather overviewHow to use our weather pages